GW4109 Weather Reports


time (UTC)temp
C
wind
direction
speed
KPH
gust
KPH
rain 1hr
cm
rain 24hr
cm
rain mn
cm
humidity
%
barometer
mb
20260505002543 21 321 11.3 27.4 0.00 0.00 0.00 35 1015.9
20260505002043 21 304 12.9 29.0 0.00 0.00 0.00 35 1015.8
20260505001540 21 333 9.7 11.3 0.00 0.00 0.00 35 1015.7
20260505001037 21 298 19.3 32.2 0.00 0.00 0.00 35 1015.6
20260505000534 21 238 3.2 25.7 0.00 0.00 0.00 34 1015.7
20260505000032 22 276 11.3 20.9 0.00 0.00 0.00 35 1015.6
20260504235528 21 273 6.4 20.9 0.00 0.00 0.00 33 1015.4
20260504235025 21 263 9.7 33.8 0.00 0.00 0.00 34 1015.5
20260504234522 22 251 19.3 32.2 0.00 0.00 0.00 34 1015.4
20260504234019 22 247 19.3 27.4 0.00 0.00 0.00 33 1015.4
20260504233514 21 260 14.5 22.5 0.00 0.00 0.00 34 1015.1
20260504233011 22 249 9.7 11.3 0.00 0.00 0.00 33 1015.2
20260504232508 22 237 27.4 37.0 0.00 0.00 0.00 33 1015.4
20260504232006 23 312 9.7 22.5 0.00 0.00 0.00 32 1015.2
20260504231502 22 295 16.1 29.0 0.00 0.00 0.00 33 1015.4
20260504230958 22 259 17.7 27.4 0.00 0.00 0.00 32 1015.2
20260504230455 23 244 24.1 33.8 0.00 0.00 0.00 32 1015.3
20260504225954 22 268 11.3 29.0 0.00 0.00 0.00 33 1015.4
20260504225450 22 250 14.5 35.4 0.00 0.00 0.00 33 1015.3
20260504224947 22 277 9.7 30.6 0.00 0.00 0.00 33 1015.3
20260504224444 22 307 16.1 29.0 0.00 0.00 0.00 33 1015.1
20260504223941 23 336 11.3 17.7 0.00 0.00 0.00 32 1015.2
20260504223437 23 240 24.1 29.0 0.00 0.00 0.00 31 1015.5
20260504222933 22 328 14.5 27.4 0.00 0.00 0.00 32 1015.3
20260504222431 22 303 9.7 37.0 0.00 0.00 0.00 32 1015.6
20260504221928 22 278 20.9 35.4 0.00 0.00 0.00 33 1015.6
20260504221425 23 273 9.7 30.6 0.00 0.00 0.00 31 1015.5
20260504220922 23 294 8.0 22.5 0.00 0.00 0.00 32 1015.6
20260504220419 23 247 16.1 32.2 0.00 0.00 0.00 31 1015.3
20260504215916 24 239 20.9 24.1 0.00 0.00 0.00 31 1015.6
20260504215413 23 291 9.7 24.1 0.00 0.00 0.00 32 1015.5
20260504214909 23 315 12.9 25.7 0.00 0.00 0.00 31 1015.6
20260504214405 23 252 14.5 20.9 0.00 0.00 0.00 31 1015.6
20260504213902 24 291 9.7 25.7 0.00 0.00 0.00 30 1015.8
20260504213358 23 327 8.0 9.7 0.00 0.00 0.00 31 1015.9
20260504212855 22 252 9.7 22.5 0.00 0.00 0.00 32 1015.9
20260504212351 23 345 11.3 22.5 0.00 0.00 0.00 31 1015.8
20260504211849 22 312 12.9 29.0 0.00 0.00 0.00 32 1016.0
20260504211345 23 292 3.2 9.7 0.00 0.00 0.00 31 1015.9
20260504210843 22 1 8.0 16.1 0.00 0.00 0.00 33 1015.9
20260504210340 23 289 9.7 20.9 0.00 0.00 0.00 33 1016.0
20260504205837 22 253 9.7 17.7 0.00 0.00 0.00 34 1016.3
20260504205335 22 303 16.1 25.7 0.00 0.00 0.00 34 1016.0
20260504204832 22 311 6.4 19.3 0.00 0.00 0.00 33 1016.2
20260504204331 23 281 12.9 16.1 0.00 0.00 0.00 33 1016.3
20260504203830 23 280 3.2 8.0 0.00 0.00 0.00 32 1016.3
20260504203326 22 287 6.4 17.7 0.00 0.00 0.00 34 1016.2
20260504202822 23 336 11.3 16.1 0.00 0.00 0.00 34 1016.5
20260504202320 23 87 1.6 8.0 0.00 0.00 0.00 32 1016.3
20260504201816 23 180 3.2 6.4 0.00 0.00 0.00 33 1016.7
20260504201313 22 97 6.4 9.7 0.00 0.00 0.00 34 1016.7
20260504200811 22 5 8.0 16.1 0.00 0.00 0.00 34 1016.6
20260504200307 21 295 9.7 19.3 0.00 0.00 0.00 35 1016.7
20260504195803 21 232 4.8 6.4 0.00 0.00 0.00 36 1017.1
20260504195259 21 348 4.8 14.5 0.00 0.00 0.00 36 1016.9
20260504194756 21 317 16.1 25.7 0.00 0.00 0.00 37 1016.9
20260504194253 20 275 11.3 22.5 0.00 0.00 0.00 38 1017.2
20260504193749 21 305 24.1 33.8 0.00 0.00 0.00 37 1017.1
20260504193246 21 314 11.3 14.5 0.00 0.00 0.00 37 1017.3
20260504192744 22 263 3.2 8.0 0.00 0.00 0.00 36 1017.3
20260504192242 21 335 6.4 8.0 0.00 0.00 0.00 35 1017.5
20260504191741 21 333 12.9 19.3 0.00 0.00 0.00 37 1017.7
20260504191237 21 4 4.8 14.5 0.00 0.00 0.00 37 1017.6
20260504190732 20 48 4.8 17.7 0.00 0.00 0.00 38 1018.0
20260504190229 21 302 9.7 12.9 0.00 0.00 0.00 36 1017.7
20260504185726 21 334 3.2 9.7 0.00 0.00 0.00 36 1017.9
20260504185223 20 290 16.1 22.5 0.00 0.00 0.00 37 1017.8
20260504184719 20 357 3.2 12.9 0.00 0.00 0.00 38 1017.9
20260504184215 20 234 14.5 20.9 0.00 0.00 0.00 38 1017.8
20260504183711 21 235 22.5 30.6 0.00 0.00 0.00 36 1017.8
20260504183208 21 114 8.0 9.7 0.00 0.00 0.00 36 1017.9
20260504182706 20 324 9.7 11.3 0.00 0.00 0.00 36 1017.8
20260504182203 20 58 4.8 9.7 0.00 0.00 0.00 36 1017.9
20260504181700 21 107 3.2 8.0 0.00 0.00 0.00 35 1018.0
20260504181158 21 43 1.6 6.4 0.00 0.00 0.00 35 1018.0
20260504180657 21 93 4.8 9.7 0.00 0.00 0.00 35 1017.9
20260504180155 21 100 4.8 6.4 0.00 0.00 0.00 36 1017.9
20260504175652 21 93 8.0 9.7 0.00 0.00 0.00 36 1017.7
20260504175148 20 79 6.4 8.0 0.00 0.00 0.00 36 1017.8
20260504174647 20 339 3.2 6.4 0.00 0.00 0.00 37 1017.8
20260504174143 20 85 3.2 6.4 0.00 0.00 0.00 37 1017.9
20260504173640 20 72 6.4 12.9 0.00 0.00 0.00 38 1017.6
20260504173138 19 88 9.7 9.7 0.00 0.00 0.00 38 1017.6
20260504172634 20 230 6.4 9.7 0.00 0.00 0.00 38 1017.7
20260504172131 20 325 8.0 12.9 0.00 0.00 0.00 38 1017.5
20260504171627 18 329 9.7 20.9 0.00 0.00 0.00 39 1017.5
20260504171125 18 276 3.2 17.7 0.00 0.00 0.00 40 1017.6
20260504170621 18 321 14.5 16.1 0.00 0.00 0.00 40 1017.5
20260504170118 18 330 8.0 20.9 0.00 0.00 0.00 41 1017.7
20260504150958 17 329 11.3 32.2 0.00 0.00 0.00 43 1016.9
20260504150455 16 284 4.8 20.9 0.00 0.00 0.00 44 1016.8
20260504140916 16 221 6.4 25.7 0.00 0.00 0.00 46 1016.6
20260504140412 16 245 9.7 27.4 0.00 0.00 0.00 46 1016.3
20260504130338 16 263 6.4 25.7 0.00 0.00 0.00 45 1016.3
20260504120300 16 353 9.7 17.7 0.00 0.00 0.00 47 1015.5
20260504110224 17 266 8.0 20.9 0.00 0.00 0.00 47 1015.5
20260504100147 16 251 4.8 9.7 0.00 0.00 0.00 50 1015.2
20260504090110 17 9 6.4 12.9 0.00 0.00 0.00 50 1015.7
20260504081540 17 122 1.6 3.2 0.00 0.00 0.00 46 1017.3
20260504081036 17 130 0.0 4.8 0.00 0.00 0.00 45 1017.3
20260504080533 17 248 0.0 4.8 0.00 0.00 0.00 45 1017.1
20260504050346 18 257 14.5 33.8 0.00 0.00 0.00 43 1014.1
20260504045844 18 288 9.7 25.7 0.00 0.00 0.00 42 1014.1
20260504045343 18 303 14.5 25.7 0.00 0.00 0.00 43 1014.2
20260504044841 18 314 20.9 24.1 0.00 0.00 0.00 42 1014.1
20260504044338 18 299 11.3 19.3 0.00 0.00 0.00 42 1014.2
20260504043836 18 301 6.4 9.7 0.00 0.00 0.00 42 1014.0
20260504043332 18 254 11.3 20.9 0.00 0.00 0.00 42 1014.2
20260504042830 18 246 9.7 9.7 0.00 0.00 0.00 41 1014.1
20260504042326 18 188 3.2 6.4 0.00 0.00 0.00 41 1013.9
20260504041822 18 146 0.0 6.4 0.00 0.00 0.00 41 1013.8
20260504041318 18 29 4.8 4.8 0.00 0.00 0.00 41 1013.9
20260504040815 19 66 4.8 8.0 0.00 0.00 0.00 41 1014.0
20260504040313 19 146 0.0 8.0 0.00 0.00 0.00 40 1013.9
20260504035808 19 276 4.8 8.0 0.00 0.00 0.00 40 1013.7
20260504035306 19 183 0.0 8.0 0.00 0.00 0.00 41 1013.8
20260504034803 19 170 3.2 6.4 0.00 0.00 0.00 40 1013.7
20260504034300 20 49 3.2 4.8 0.00 0.00 0.00 40 1013.6
20260504033757 19 242 14.5 14.5 0.00 0.00 0.00 41 1013.4
20260504033255 19 145 4.8 9.7 0.00 0.00 0.00 41 1013.5
20260504032751 20 68 0.0 9.7 0.00 0.00 0.00 41 1013.2
20260504032249 20 247 20.9 22.5 0.00 0.00 0.00 41 1013.1
20260504031745 20 263 19.3 27.4 0.00 0.00 0.00 40 1012.8
20260504031243 20 308 12.9 25.7 0.00 0.00 0.00 40 1012.7
20260504030738 20 282 12.9 37.0 0.00 0.00 0.00 42 1012.4
20260504030236 20 255 22.5 35.4 0.00 0.00 0.00 41 1012.5
20260504025732 20 253 22.5 33.8 0.00 0.00 0.00 42 1012.5
20260504025229 20 269 14.5 32.2 0.00 0.00 0.00 40 1012.4
20260504024726 20 291 12.9 30.6 0.00 0.00 0.00 39 1012.5
20260504024223 20 280 9.7 29.0 0.00 0.00 0.00 42 1012.7
20260504023720 20 268 11.3 24.1 0.00 0.00 0.00 42 1012.4
20260504023215 20 267 8.0 38.6 0.00 0.00 0.00 42 1012.4
20260504022712 21 262 11.3 25.7 0.00 0.00 0.00 39 1012.2
20260504022208 21 249 12.9 25.7 0.00 0.00 0.00 40 1012.1
20260504021706 22 242 14.5 24.1 0.00 0.00 0.00 37 1012.0
20260504021202 22 315 11.3 20.9 0.00 0.00 0.00 34 1011.8
20260504020659 22 312 16.1 29.0 0.00 0.00 0.00 36 1011.5
20260504020155 23 258 9.7 20.9 0.00 0.00 0.00 36 1011.2
20260504015652 23 261 14.5 22.5 0.00 0.00 0.00 36 1011.1
20260504015148 23 257 12.9 30.6 0.00 0.00 0.00 35 1011.2
20260504014644 23 247 17.7 19.3 0.00 0.00 0.00 34 1010.8
20260504014142 23 281 9.7 27.4 0.00 0.00 0.00 35 1010.8
20260504013639 23 259 16.1 19.3 0.00 0.00 0.00 35 1010.9
20260504013136 24 256 16.1 29.0 0.00 0.00 0.00 32 1010.8
20260504012633 25 245 9.7 17.7 0.00 0.00 0.00 31 1010.9
20260504012131 25 318 8.0 20.9 0.00 0.00 0.00 29 1010.7
20260504011622 26 32 3.2 12.9 0.00 0.00 0.00 27 1011.0
20260504011119 26 47 4.8 14.5 0.00 0.00 0.00 21 1010.6
20260504010614 27 253 14.5 20.9 0.00 0.00 0.00 22 1010.6
20260504010111 27 244 8.0 9.7 0.00 0.00 0.00 24 1010.7
20260504005608 27 246 12.9 17.7 0.00 0.00 0.00 27 1010.6
20260504005105 28 34 0.0 8.0 0.00 0.00 0.00 21 1010.3
20260504004603 27 238 9.7 16.1 0.00 0.00 0.00 23 1010.4
20260504004059 28 273 6.4 14.5 0.00 0.00 0.00 22 1010.4
20260504003554 30 330 11.3 12.9 0.00 0.00 0.00 17 1010.3
20260504003051 29 320 3.2 14.5 0.00 0.00 0.00 16 1010.1